map of SXB home
SXB - Airport
Location
City:  Strasbourg, Alsace, France
Near (Alt.):Enzheim
Name:Strasbourg Airport
ICAO:LFST
IATA:SXB

Details
Type:Airport (Aerodrome, Airfield)
Use:Public/Civil, International (customs port of entry)
Latitude:4832'37"N (48.543611)
Longitude:738'14"E (7.637222)
Elevation:505 ft (154 m)
Variation:2.17E (WMM2015 magnetic declination)
0.13 annual change
Runways:1
Longest:7874 × 148 ft (2400 × 45 m), paved

Time
Time Zone:UTC+1 (DST+2)
Local Time:

Weather
METAR:LFST 212330Z AUTO 34005KT 300V360 CAVOK 12/06 Q1024 NOSIG
TAF:LFST 212300Z 2200/2224 34010KT 9999 FEW050 PROB40
TEMPO 2209/2218 34012G22KT
BECMG 2221/2224 02005KT

Related Locations
Nearby:
Farthest:CHT: 12051 mi / 19394 km
Waitangi [Tuuta], CIT, NZ

Find:

   beyond  
but within

Other Information
Maps:
NOTAMs:
Links:
Sources:

  
  • flag of France
  • flag of Alsace
  • flag of Strasbourg
  

Sectional Chart

Flight Planning
at skyvector.com

Satellite Image

Google Maps Satellite view

 

Copyright © 2004-2018 Karl L. Swartz. All rights reserved.
The Great Circle Mapper name and logo are trademarks of the Great Circle Mapper.
All other trademarks mentioned herein belong to their respective owners.
Please see credits for attibutions and further copyright information.

  Follow gcmap on Facebook Follow gcmap on Twitter Follow gcmap on Google+ GCmap on LinkedIn

hCard Microformat

Geo Microformat